GW1454 Weather Reports


Display with metric or nautical units.
time (UTC)temp
F
wind
direction
speed
MPH
gust
MPH
rain 1hr
in
rain 24hr
in
rain mn
in
humidity
%
barometer
mb
20260504181045 75 63 3.0 10.0 0.00 0.00 0.00 36 1015.2
20260504180546 75 72 4.0 10.0 0.00 0.00 0.00 36 1015.3
20260504180052 75 55 3.0 9.0 0.00 0.00 0.00 36 1015.4
20260504175546 75 163 1.0 9.0 0.00 0.00 0.00 37 1015.3
20260504175045 75 83 4.0 10.0 0.00 0.00 0.00 36 1015.4
20260504174551 75 119 2.0 10.0 0.00 0.00 0.00 37 1015.4
20260504174046 75 71 3.0 13.0 0.00 0.00 0.00 39 1015.6
20260504173550 74 69 4.0 13.0 0.00 0.00 0.00 39 1015.5
20260504173050 74 167 3.0 10.0 0.00 0.00 0.00 38 1015.5
20260504172550 74 314 4.0 9.0 0.00 0.00 0.00 38 1015.6
20260504172045 74 103 1.0 9.0 0.00 0.00 0.00 39 1015.6
20260504171552 74 327 3.0 9.0 0.00 0.00 0.00 38 1015.6
20260504171045 73 238 2.0 12.0 0.00 0.00 0.00 40 1015.7
20260504170547 72 74 3.0 12.0 0.00 0.00 0.00 40 1015.9
20260504151050 68 143 2.0 9.0 0.00 0.00 0.00 42 1017.3
20260504150547 67 134 4.0 13.0 0.00 0.00 0.00 41 1017.3
20260504141047 65 103 2.0 4.0 0.00 0.00 0.00 52 1017.2
20260504140548 64 161 0.0 4.0 0.00 0.00 0.00 56 1017.2
20260504130547 57 0 1.0 4.0 0.00 0.00 0.00 67 1017.2
20260504110550 39 0 0.0 0.0 0.00 0.00 0.00 92 1017.1
20260504100550 39 0 0.0 0.0 0.00 0.00 0.00 91 1017.1
20260504090107 39 0 0.0 0.0 0.00 0.00 0.00 90 1017.3
20260504081601 40 0 0.0 0.0 0.00 0.00 0.00 87 1016.7
20260504081048 40 0 0.0 0.0 0.00 0.00 0.00 88 1016.8
20260504080548 40 0 0.0 0.0 0.00 0.00 0.00 87 1016.8
20260504050545 43 0 0.0 0.0 0.00 0.00 0.00 80 1017.2
20260504045548 43 0 0.0 0.0 0.00 0.00 0.00 78 1017.1
20260504045044 43 0 0.0 0.0 0.00 0.00 0.00 78 1017.1
20260504044609 43 0 0.0 0.0 0.00 0.00 0.00 78 1017.0
20260504044045 44 0 0.0 0.0 0.00 0.00 0.00 78 1017.0
20260504043544 43 0 0.0 0.0 0.00 0.00 0.00 78 1016.8
20260504043056 43 0 0.0 0.0 0.00 0.00 0.00 78 1016.7
20260504042547 43 0 0.0 0.0 0.00 0.00 0.00 78 1016.8
20260504042045 43 0 0.0 0.0 0.00 0.00 0.00 77 1016.9
20260504041554 43 0 0.0 0.0 0.00 0.00 0.00 78 1017.0
20260504041045 43 0 0.0 0.0 0.00 0.00 0.00 77 1016.9
20260504040545 43 0 0.0 0.0 0.00 0.00 0.00 77 1017.0
20260504040104 43 0 0.0 0.0 0.00 0.00 0.00 77 1017.0
20260504035547 43 0 0.0 0.0 0.00 0.00 0.00 76 1017.0
20260504035045 43 0 0.0 0.0 0.00 0.00 0.00 76 1017.0
20260504034607 43 0 0.0 0.0 0.00 0.00 0.00 75 1016.9
20260504034044 43 0 0.0 0.0 0.00 0.00 0.00 75 1017.0
20260504033544 43 0 0.0 0.0 0.00 0.00 0.00 75 1017.0
20260504033056 43 0 0.0 0.0 0.00 0.00 0.00 75 1017.0
20260504032544 43 0 0.0 0.0 0.00 0.00 0.00 76 1017.1
20260504032044 43 0 0.0 0.0 0.00 0.00 0.00 76 1017.0
20260504031553 43 0 0.0 0.0 0.00 0.00 0.00 75 1017.0
20260504031046 43 0 0.0 0.0 0.00 0.00 0.00 72 1017.1
20260504030547 44 0 0.0 0.0 0.00 0.00 0.00 72 1017.2
20260504030052 44 0 0.0 0.0 0.00 0.00 0.00 72 1017.2
20260504025550 44 0 0.0 0.0 0.00 0.00 0.00 71 1017.2
20260504025048 45 0 0.0 0.0 0.00 0.00 0.00 72 1017.1
20260504024552 45 0 0.0 0.0 0.00 0.00 0.00 73 1017.0
20260504024047 45 0 0.0 0.0 0.00 0.00 0.00 73 1017.0
20260504023545 45 0 0.0 0.0 0.00 0.00 0.00 72 1016.9
20260504023052 45 0 0.0 0.0 0.00 0.00 0.00 74 1016.9
20260504022547 46 0 0.0 0.0 0.00 0.00 0.00 73 1016.8
20260504022048 46 0 0.0 0.0 0.00 0.00 0.00 72 1016.7
20260504021551 46 0 0.0 0.0 0.00 0.00 0.00 71 1016.7
20260504021044 46 0 0.0 0.0 0.00 0.00 0.00 71 1016.6
20260504020547 46 0 0.0 0.0 0.00 0.00 0.00 70 1016.6
20260504020052 47 0 0.0 0.0 0.00 0.00 0.00 69 1016.5
20260504015544 47 0 0.0 0.0 0.00 0.00 0.00 69 1016.5
20260504015047 47 0 0.0 0.0 0.00 0.00 0.00 70 1016.4
20260504014556 47 0 0.0 0.0 0.00 0.00 0.00 70 1016.3
20260504014048 47 0 0.0 0.0 0.00 0.00 0.00 69 1016.3
20260504013547 48 0 0.0 0.0 0.00 0.00 0.00 68 1016.3
20260504013103 48 0 0.0 0.0 0.00 0.00 0.00 67 1016.3
20260504012548 49 0 0.0 0.0 0.00 0.00 0.00 67 1016.3
20260504012047 49 0 0.0 0.0 0.00 0.00 0.00 65 1016.3
20260504011550 49 0 0.0 0.0 0.00 0.00 0.00 65 1016.3
20260504011048 49 0 0.0 0.0 0.00 0.00 0.00 65 1016.3
20260504010545 50 0 0.0 0.0 0.00 0.00 0.00 64 1016.3
20260504010057 50 0 0.0 0.0 0.00 0.00 0.00 63 1016.2
20260504005547 50 0 0.0 0.0 0.00 0.00 0.00 62 1016.1
20260504005047 51 0 0.0 0.0 0.00 0.00 0.00 59 1016.2
20260504004600 51 0 0.0 0.0 0.00 0.00 0.00 59 1016.0
20260504004048 52 0 0.0 0.0 0.00 0.00 0.00 57 1016.0
20260504003544 52 0 0.0 0.0 0.00 0.00 0.00 56 1015.9
20260504003051 53 0 0.0 0.0 0.00 0.00 0.00 56 1015.9
20260504002547 53 0 0.0 0.0 0.00 0.00 0.00 54 1015.9
20260504002047 54 0 0.0 0.0 0.00 0.00 0.00 52 1015.8
20260504001553 55 0 0.0 0.0 0.00 0.00 0.00 51 1015.7
20260504001048 55 0 0.0 0.0 0.00 0.00 0.00 49 1015.8
20260504000548 56 0 0.0 0.0 0.00 0.00 0.00 48 1015.8
20260504000114 57 0 0.0 0.0 0.00 0.00 0.00 46 1015.8
20260503235544 58 0 0.0 0.0 0.00 0.00 0.00 44 1015.7
20260503235048 58 0 0.0 0.0 0.00 0.00 0.00 44 1015.7
20260503234553 59 0 0.0 0.0 0.00 0.00 0.00 40 1015.7
20260503234048 60 0 0.0 0.0 0.00 0.00 0.00 39 1015.7
20260503233548 61 0 0.0 3.0 0.00 0.00 0.00 37 1015.7
20260503233056 62 0 0.0 3.0 0.00 0.00 0.00 37 1015.8
20260503232544 62 103 0.0 3.0 0.00 0.00 0.00 36 1015.8
20260503232047 62 42 0.0 3.0 0.00 0.00 0.00 35 1015.8
20260503231553 62 91 0.0 3.0 0.00 0.00 0.00 35 1015.8
20260503231047 63 101 0.0 3.0 0.00 0.00 0.00 34 1015.8
20260503230551 63 0 0.0 4.0 0.00 0.00 0.00 34 1015.7
20260503230058 63 89 0.0 5.0 0.00 0.00 0.00 33 1015.8
20260503225547 64 65 0.0 6.0 0.00 0.00 0.00 34 1015.8
20260503225048 64 144 2.0 8.0 0.00 0.00 0.00 32 1015.8
20260503224550 65 94 3.0 10.0 0.00 0.00 0.00 31 1015.8
20260503224048 66 157 3.0 10.0 0.00 0.00 0.00 31 1015.9
20260503223548 66 317 1.0 5.0 0.00 0.00 0.00 30 1015.9
20260503223057 66 135 2.0 5.0 0.00 0.00 0.00 29 1015.8
20260503222548 66 156 2.0 5.0 0.00 0.00 0.00 29 1015.9
20260503222048 66 67 1.0 11.0 0.00 0.00 0.00 29 1016.0
20260503221553 66 156 3.0 11.0 0.00 0.00 0.00 29 1016.0
20260503221048 66 88 2.0 7.0 0.00 0.00 0.00 29 1016.1
20260503220548 66 155 1.0 6.0 0.00 0.00 0.00 30 1016.2
20260503220107 66 53 2.0 9.0 0.00 0.00 0.00 28 1016.1
20260503215546 67 69 3.0 9.0 0.00 0.00 0.00 29 1016.2
20260503215045 66 100 1.0 10.0 0.00 0.00 0.00 29 1016.2
20260503214549 66 157 3.0 10.0 0.00 0.00 0.00 28 1016.3
20260503214047 66 144 3.0 10.0 0.00 0.00 0.00 28 1016.3
20260503213547 67 192 1.0 6.0 0.00 0.00 0.00 28 1016.4
20260503213048 66 106 2.0 10.0 0.00 0.00 0.00 27 1016.5
20260503212547 66 144 3.0 10.0 0.00 0.00 0.00 27 1016.5
20260503212044 66 104 3.0 7.0 0.00 0.00 0.00 29 1016.5
20260503211555 66 75 2.0 8.0 0.00 0.00 0.00 29 1016.6
20260503211048 65 142 4.0 8.0 0.00 0.00 0.00 28 1016.6
20260503210544 65 171 2.0 8.0 0.00 0.00 0.00 28 1016.5
20260503210053 65 184 2.0 9.0 0.00 0.00 0.00 27 1016.5
20260503205545 65 221 3.0 9.0 0.00 0.00 0.00 27 1016.6
20260503205048 65 129 4.0 9.0 0.00 0.00 0.00 28 1016.6
20260503204552 65 132 2.0 9.0 0.00 0.00 0.00 26 1016.7
20260503204047 65 126 2.0 9.0 0.00 0.00 0.00 26 1016.7
20260503203545 65 149 1.0 9.0 0.00 0.00 0.00 26 1016.8
20260503203056 65 114 2.0 11.0 0.00 0.00 0.00 25 1017.0
20260503202545 65 125 4.0 11.0 0.00 0.00 0.00 27 1017.1
20260503202048 65 109 4.0 10.0 0.00 0.00 0.00 27 1017.0
20260503201552 65 138 1.0 8.0 0.00 0.00 0.00 27 1017.1
20260503201047 65 134 4.0 13.0 0.00 0.00 0.00 30 1017.2
20260503200547 65 0 4.0 13.0 0.00 0.00 0.00 27 1017.3
20260503200101 64 66 5.0 13.0 0.00 0.00 0.00 28 1017.4
20260503195546 64 76 4.0 13.0 0.00 0.00 0.00 28 1017.6
20260503195047 64 121 4.0 13.0 0.00 0.00 0.00 27 1017.5
20260503194559 64 57 7.0 13.0 0.00 0.00 0.00 27 1017.7
20260503194047 64 291 4.0 11.0 0.00 0.00 0.00 27 1017.7
20260503193547 64 86 2.0 11.0 0.00 0.00 0.00 28 1017.5
20260503193051 65 118 2.0 8.0 0.00 0.00 0.00 28 1017.8
20260503192547 64 141 3.0 8.0 0.00 0.00 0.00 30 1017.8
20260503192048 64 180 2.0 8.0 0.00 0.00 0.00 27 1017.9
20260503191552 63 72 3.0 11.0 0.00 0.00 0.00 30 1017.9
20260503191048 63 157 3.0 11.0 0.00 0.00 0.00 28 1017.9
20260503190550 63 150 5.0 11.0 0.00 0.00 0.00 28 1018.1
20260503190050 63 133 3.0 9.0 0.00 0.00 0.00 29 1018.3
20260503185544 63 196 2.0 9.0 0.00 0.00 0.00 28 1018.2
20260503185050 63 126 3.0 9.0 0.00 0.00 0.00 28 1018.3
20260503184603 63 175 0.0 9.0 0.00 0.00 0.00 29 1018.4
20260503184047 62 138 2.0 9.0 0.00 0.00 0.00 28 1018.5
20260503183546 62 130 4.0 10.0 0.00 0.00 0.00 29 1018.5
20260503183054 62 22 4.0 10.0 0.00 0.00 0.00 28 1018.6
20260503182552 62 82 3.0 12.0 0.00 0.00 0.00 30 1018.6
20260503182047 62 132 3.0 13.0 0.00 0.00 0.00 29 1018.7
20260503181551 62 198 4.0 13.0 0.00 0.00 0.00 28 1018.7